Home > Weather > Zaandam > Past weeks

Flag for Netherlands Weather for the Past 2 Weeks in Zaandam, Netherlands

Now
43 °F

Light rain. Partly sunny.


Feels Like: 37 °F
Forecast: 39 / 45 °F
Wind: 9 mph from South

Location: Amsterdam Schiphol Airport

Current Time: Feb 9, 2016 at 1:11:04 PM

Latest Report: Feb 9, 2016 at 12:25 PM


Visibility: N/A

Pressure: 29.06 "Hg

Humidity: 87%

Dew point: 39 °F

Location of ZaandamLocation

Historic Weather in Zaandam — Graph

°F

Zaandam Temperature Yesterday

Maximum temperature yesterday: 50 °F (at 12:25 PM)
Minimum temperature yesterday: 45 °F (at 12:25 AM)
Average temperature yesterday: 47 °F

High & Low Weather Summary for the Past Weeks

 TemperatureHumidityPressure
High55 °F (Jan 25, 12:55 PM)100% (Jan 25, 10:25 AM)30.27 "Hg (Jan 25, 10:25 AM)
Low37 °F (Feb 4, 12:55 AM)57% (Jan 30, 8:55 PM)29.06 "Hg (Feb 8, 7:25 AM)
Average47 °F81%29.83 "Hg
* Reported Jan 25 10:25 AM — Feb 9 10:55 AM, Zaandam, Weather by CustomWeather, © 2016

Note: Actual official high and low records may vary slightly from our data, if they occured in-between our weather recording intervals... More about our weather records

Advertising

Zaandam Weather History for the Previous 24 Hours

 ConditionsComfort  
Time TempWeatherWind HumidityBarometerVisibility
10:55 AM
Tue, Feb 9
45 °FPassing clouds.12 mph81%29.15 "HgN/A
10:25 AM43 °FScattered clouds.15 mph87%29.18 "HgN/A
9:55 AM43 °FPassing clouds.15 mph87%29.21 "HgN/A
8:55 AM43 °FScattered clouds.14 mph87%29.24 "HgN/A
8:25 AM41 °FPassing clouds.16 mph93%29.24 "HgN/A
7:55 AM43 °FPassing clouds.15 mph87%29.24 "HgN/A
6:55 AM43 °FScattered showers. Passing clouds.22 mph87%29.27 "HgN/A
6:25 AM43 °FSprinkles. Passing clouds.23 mph87%29.30 "HgN/A
5:55 AM43 °FPassing clouds.21 mph87%29.27 "HgN/A
5:25 AM45 °FPassing clouds.24 mph71%29.30 "HgN/A
4:55 AM45 °FPassing clouds.24 mph71%29.30 "HgN/A
4:25 AM45 °FPassing clouds.23 mph71%29.30 "HgN/A
3:55 AM45 °FPassing clouds.24 mph71%29.30 "HgN/A
3:25 AM45 °FPassing clouds.25 mph71%29.30 "HgN/A
2:55 AM45 °FPassing clouds.26 mph71%29.30 "HgN/A
2:25 AM45 °FPassing clouds.30 mph76%29.30 "HgN/A
1:55 AM46 °FPartly cloudy.31 mph71%29.30 "HgN/A
1:25 AM46 °FPassing clouds.30 mph76%29.30 "HgN/A
12:55 AM46 °FPassing clouds.29 mph76%29.27 "HgN/A
12:25 AM46 °FLight rain. Passing clouds.29 mph82%29.27 "Hg5 mi
11:55 PM
Mon, Feb 8
46 °FLight rain. Passing clouds.32 mph82%29.24 "Hg5 mi
11:25 PM46 °FLight rain. Partly cloudy.31 mph87%29.24 "Hg4 mi
10:55 PM46 °FLight rain. Partly cloudy.33 mph82%29.21 "Hg4 mi
10:25 PM46 °FLight rain. Partly cloudy.36 mph87%29.18 "Hg4 mi
9:55 PM48 °FPartly cloudy.33 mph82%29.18 "Hg6 mi
9:25 PM46 °FPartly cloudy.30 mph87%29.15 "Hg6 mi
8:55 PM46 °FPartly cloudy.33 mph82%29.15 "Hg4 mi
8:25 PM46 °FPartly cloudy.36 mph82%29.12 "Hg4 mi
7:55 PM46 °FPartly cloudy.33 mph87%29.12 "Hg6 mi
7:25 PM46 °FPartly cloudy.33 mph87%29.12 "Hg6 mi
6:55 PM48 °FPassing clouds.38 mph76%29.09 "Hg4 mi
6:25 PM46 °FPartly cloudy.29 mph87%29.09 "Hg4 mi
5:55 PM46 °FPassing clouds.38 mph82%29.09 "Hg4 mi
5:25 PM48 °FDrizzle. Partly sunny.36 mph76%29.09 "Hg4 mi
4:55 PM48 °FDrizzle. Partly sunny.37 mph71%29.06 "Hg5 mi
4:25 PM50 °FScattered clouds.38 mph67%29.06 "Hg6 mi
3:55 PM48 °FScattered clouds.37 mph71%29.09 "HgN/A
3:25 PM50 °FScattered clouds.37 mph67%29.09 "Hg6 mi
2:55 PM48 °FBroken clouds.36 mph71%29.09 "HgN/A
2:25 PM48 °FPassing clouds.32 mph71%29.09 "HgN/A
1:55 PM48 °FScattered clouds.33 mph71%29.09 "HgN/A
1:25 PM46 °FSprinkles. Partly sunny.30 mph82%29.09 "HgN/A
Weather by CustomWeather, © 2016

See weather overviewHow to use our weather pages